Sunday, July 22, 2018, 8:45 AM EDT
Back to Local

KTHV, York Airport

Location: Spring Grove, PA, United States Lat: 39.917
Local Time: 8:45 AM EDT (12:45 GMT) Lon: -76.883
Time Zone: US/Eastern Elev: 478 ft

Show me the last for .
Show Decoded

2018-07-22 07:53 METAR KTHV 221153Z AUTO VRB05KT 10SM CLR 19/17 A2979 RMK AO2 SLP088 60014 70290
                 T01890172 10189 20172 53038 =
2018-07-22 07:42 METAR KTHV 221142Z AUTO 20006KT 10SM SCT014 18/17 A2978 RMK AO2 T01830172 =
2018-07-22 06:53 METAR KTHV 221053Z AUTO 21005KT 10SM OVC013 18/17 A2975 RMK AO2 SLP076 T01780167
                 =
2018-07-22 06:42 METAR KTHV 221042Z AUTO 22005KT 10SM BKN011 18/17 A2975 RMK AO2 T01780167 =
2018-07-22 06:13 METAR KTHV 221013Z AUTO 22006KT 10SM SCT009 SCT015 17/17 A2973 RMK AO2 T01720167
                 =
2018-07-22 05:53 METAR KTHV 220953Z AUTO 22005KT 10SM SCT015 BKN021 BKN027 18/17 A2972 RMK AO2
                 SLP062 T01780167 =
2018-07-22 05:10 METAR KTHV 220910Z AUTO 20004KT 10SM SCT008 OVC016 18/18 A2969 RMK AO2 T01830178
                 =
2018-07-22 04:53 METAR KTHV 220853Z AUTO 22004KT 10SM OVC007 19/18 A2968 RMK AO2 CIG 006V011
                 SLP050 60014 T01890183 53018 =
2018-07-22 04:36 METAR KTHV 220836Z AUTO 23004KT 8SM OVC008 19/18 A2966 RMK AO2 CIG 006V011
                 T01890183 =
2018-07-22 04:26 METAR KTHV 220826Z AUTO VRB03KT 9SM OVC010 19/18 A2965 RMK AO2 CIG 007V013
                 T01890183 =
2018-07-22 04:06 METAR KTHV 220806Z AUTO 27003KT 10SM OVC008 19/18 A2965 RMK AO2 T01890183 =
2018-07-22 03:53 METAR KTHV 220753Z AUTO 26005KT 10SM BKN007 OVC049 18/18 A2964 RMK AO2 RAE31 CIG
                 006V011 SLP036 P0002 T01830178 =
2018-07-22 03:50 METAR KTHV 220750Z AUTO 26005KT 10SM BKN007 OVC049 18/18 A2964 RMK AO2 RAE31
                 P0002 =
2018-07-22 03:39 METAR KTHV 220739Z AUTO 27008KT 10SM SCT006 BKN047 OVC055 18/18 A2963 RMK AO2
                 RAE31 P0002 T01830178 =
2018-07-22 03:16 METAR KTHV 220716Z AUTO 34009G17KT 6SM -RA BR BKN042 OVC060 18/18 A2961 RMK AO2
                 P0002 T01830178 =
2018-07-22 02:53 METAR KTHV 220653Z AUTO 30009KT 3SM -RA BR FEW005 SCT009 OVC018 18/18 A2963 RMK
                 AO2 SLP032 P0012 T01780178 =
2018-07-22 02:49 METAR KTHV 220649Z AUTO 28009KT 2 1/2SM RA BR FEW005 OVC012 18/18 A2963 RMK AO2
                 P0012 =
2018-07-22 02:35 METAR KTHV 220635Z AUTO 27008KT 1 3/4SM RA BR FEW005 BKN010 OVC021 18/17 A2964
                 RMK AO2 P0007 T01780172 =
2018-07-22 02:31 METAR KTHV 220631Z AUTO 27008KT 2 1/2SM RA BR FEW005 BKN012 OVC021 18/17 A2964
                 RMK AO2 P0005 T01780172 =
2018-07-22 02:27 METAR KTHV 220627Z AUTO 26007G17KT 4SM -RA BR FEW005 SCT009 OVC019 17/17 A2964
                 RMK AO2 P0004 T01720172 =
2018-07-22 02:09 METAR KTHV 220609Z AUTO 30010KT 4SM -RA BR FEW011 BKN019 OVC024 17/17 A2963 RMK
                 AO2 P0002 T01720172 =
2018-07-22 01:59 METAR KTHV 220559Z AUTO 31010KT 2 1/2SM RA BR FEW007 BKN015 OVC020 17/17 A2964
                 RMK AO2 P0002 T01720167 =
2018-07-22 01:53 METAR KTHV 220553Z AUTO 29007KT 1 3/4SM +RA BR FEW007 OVC013 17/17 A2964 RMK AO2
                 SLP038 P0030 60122 T01720167 10172 20156 58009 =
2018-07-22 01:49 METAR KTHV 220549Z AUTO 30008KT 1 3/4SM +RA BR SCT008 OVC013 17/17 A2965 RMK AO2
                 P0028 =
2018-07-22 01:40 METAR KTHV 220540Z AUTO 29006KT 1 3/4SM +RA BR BKN008 OVC013 17/17 A2965 RMK AO2
                 P0024 T01720167 =
2018-07-22 01:24 METAR KTHV 220524Z AUTO 31008KT 2 1/2SM RA BR OVC008 17/17 A2964 RMK AO2 P0017
                 T01720167 =
2018-07-22 01:14 METAR KTHV 220514Z AUTO 31007KT 2SM RA BR BKN008 OVC015 17/17 A2965 RMK AO2
                 P0013 T01720167 =
2018-07-22 01:00 METAR KTHV 220500Z AUTO 36008KT 1 1/2SM +RA BR OVC008 17/17 A2966 RMK AO2 P0008
                 T01720167 =
2018-07-22 00:53 METAR KTHV 220453Z AUTO 34006KT 2SM +RA BR OVC008 17/17 A2967 RMK AO2 SLP047
                 P0042 T01720167 402170156 =
2018-07-22 00:29 METAR KTHV 220429Z AUTO 32009KT 1 1/4SM +RA BR BKN006 OVC013 17/17 A2969 RMK AO2
                 PRESFR P0026 T01720172 =
2018-07-22 00:21 METAR KTHV 220421Z AUTO 32008KT 2SM +RA BR BKN006 OVC013 17/17 A2970 RMK AO2
                 PRESFR P0019 T01720172 =
2018-07-22 00:06 METAR KTHV 220406Z AUTO VRB06KT 1 3/4SM +RA BR BKN006 OVC014 17/17 A2972 RMK AO2
                 P0009 T01720167 =
2018-07-21 23:53 METAR KTHV 220353Z AUTO 35006KT 2 1/2SM +RA BR BKN006 OVC010 17/17 A2973 RMK AO2
                 CIG 004V008 PRESFR SLP066 P0029 T01720167 =
2018-07-21 23:26 METAR KTHV 220326Z AUTO 02005KT 2 1/2SM +RA BR OVC006 17/17 A2975 RMK AO2 P0011
                 T01720167 =
2018-07-21 23:16 METAR KTHV 220316Z AUTO 04006KT 2SM +RA BR OVC006 17/17 A2976 RMK AO2 CIG
                 005V009 P0006 T01720167 =
2018-07-21 22:53 METAR KTHV 220253Z AUTO 04007KT 9SM -RA OVC007 17/16 A2978 RMK AO2 SLP083 P0002
                 60021 T01670161 58024 =
2018-07-21 22:34 METAR KTHV 220234Z AUTO 04007KT 8SM -RA OVC007 17/16 A2979 RMK AO2 CIG 006V011
                 P0002 T01670161 =
2018-07-21 22:07 METAR KTHV 220207Z AUTO 05008KT 5SM -RA BR OVC009 16/16 A2981 RMK AO2 CIG
                 006V012 P0001 T01610156 =
2018-07-21 21:53 METAR KTHV 220153Z AUTO 06007KT 7SM -RA OVC010 16/15 A2981 RMK AO2 CIG 006V014
                 SLP095 P0010 T01610150 =
2018-07-21 21:13 METAR KTHV 220113Z AUTO 06008G17KT 6SM RA BR OVC010 16/15 A2983 RMK AO2 CIG
                 006V014 P0003 T01610150 =
2018-07-21 20:53 METAR KTHV 220053Z AUTO 05012G21KT 6SM RA BR OVC008 16/15 A2984 RMK AO2 CIG
                 006V012 SLP104 P0009 T01610150 =
2018-07-21 20:26 METAR KTHV 220026Z AUTO 05009G16KT 6SM -RA BR OVC008 16/16 A2985 RMK AO2 CIG
                 006V012 P0005 T01610156 =
2018-07-21 19:53 METAR KTHV 212353Z AUTO 06013G18KT 3SM RA BR BKN007 OVC013 17/16 A2985 RMK AO2
                 CIG 004V009 SLP108 P0023 60115 T01670161 10194 20167 57021 =
2018-07-21 19:40 METAR KTHV 212340Z AUTO 04012KT 2 1/2SM RA BR OVC006 17/17 A2985 RMK AO2 CIG
                 003V012 P0021 T01670167 =
2018-07-21 19:35 METAR KTHV 212335Z AUTO 03008G17KT 3SM RA BR BKN008 OVC015 17/17 A2986 RMK AO2
                 P0019 T01720167 =
2018-07-21 19:31 METAR KTHV 212331Z AUTO 03011G17KT 2 1/2SM RA BR BKN006 BKN010 OVC019 17/17
                 A2986 RMK AO2 P0018 T01720167 =
2018-07-21 19:26 METAR KTHV 212326Z AUTO 03009G17KT 2SM +RA BR SCT006 BKN009 OVC016 18/17 A2986
                 RMK AO2 P0017 T01780172 =
2018-07-21 19:15 METAR KTHV 212315Z AUTO 06009G18KT 2SM +RA BR SCT009 BKN015 OVC021 18/17 A2986
                 RMK AO2 P0013 T01780172 =
2018-07-21 19:10 METAR KTHV 212310Z AUTO 05012KT 1 1/2SM +RA BR BKN009 BKN014 OVC020 18/17 A2986
                 RMK AO2 P0011 T01780172 =
2018-07-21 19:03 METAR KTHV 212303Z AUTO 07009G18KT 1 1/2SM +RA BR SCT009 OVC014 18/17 A2987 RMK
                 AO2 P0007 T01780172 =
2018-07-21 18:53 METAR KTHV 212253Z AUTO 06008KT 1SM +RA BR BKN009 OVC014 18/17 A2987 RMK AO2
                 SLP115 P0029 T01780172 =
2018-07-21 18:42 METAR KTHV 212242Z AUTO 05010G18KT 1 3/4SM +RA BR FEW008 OVC014 18/17 A2987 RMK
                 AO2 P0016 T01780172 =
2018-07-21 18:34 METAR KTHV 212234Z AUTO 06008G17KT 2 1/2SM RA BR SCT008 BKN014 OVC020 18/17
                 A2988 RMK AO2 P0010 T01830172 =
2018-07-21 18:18 METAR KTHV 212218Z AUTO 07010KT 4SM RA BR SCT009 BKN015 OVC024 18/17 A2988 RMK
                 AO2 P0005 T01830172 =
2018-07-21 18:00 METAR KTHV 212200Z AUTO 06011G16KT 7SM -RA BKN009 OVC014 18/18 A2989 RMK AO2 CIG
                 007V012 P0001 T01830178 =
2018-07-21 17:53 METAR KTHV 212153Z AUTO 05006KT 7SM -RA OVC011 18/18 A2989 RMK AO2 SLP122 P0010
                 T01830178 =
2018-07-21 16:53 METAR KTHV 212053Z AUTO 03009KT 3SM RA BR OVC008 18/17 A2991 RMK AO2 CIG 005V012
                 SLP129 P0021 60053 T01780172 58021 =
2018-07-21 16:29 METAR KTHV 212029Z AUTO 04006KT 3SM RA BR OVC008 18/17 A2992 RMK AO2 CIG 004V012
                 P0013 T01780172 =
2018-07-21 16:22 METAR KTHV 212022Z AUTO 02006KT 2SM +RA BR BKN009 OVC014 18/17 A2992 RMK AO2
                 P0011 T01780172 =
2018-07-21 16:13 METAR KTHV 212013Z AUTO 04006KT 2 1/2SM RA BR BKN009 OVC014 18/17 A2992 RMK AO2
                 P0007 T01780172 =
2018-07-21 16:05 METAR KTHV 212005Z AUTO 03008KT 3SM RA BR FEW008 BKN014 OVC022 18/17 A2993 RMK
                 AO2 P0004 T01780172 =
2018-07-21 15:53 METAR KTHV 211953Z AUTO 02007KT 2 1/2SM RA BR SCT015 BKN021 OVC044 18/17 A2993
                 RMK AO2 SLP136 P0022 T01780172 =
2018-07-21 15:48 METAR KTHV 211948Z AUTO VRB06KT 3SM RA BR FEW009 BKN021 OVC042 18/17 A2994 RMK
                 AO2 P0020 =
2018-07-21 15:44 METAR KTHV 211944Z AUTO 04004KT 3SM RA BR FEW010 SCT019 OVC042 18/17 A2994 RMK
                 AO2 P0019 T01780172 =
2018-07-21 15:32 METAR KTHV 211932Z AUTO 04008KT 2 1/2SM RA BR FEW009 SCT031 OVC042 18/17 A2994
                 RMK AO2 P0016 T01780167 =
2018-07-21 15:22 METAR KTHV 211922Z AUTO 04006KT 3SM RA BR FEW010 OVC034 18/17 A2995 RMK AO2
                 P0012 T01780167 =
2018-07-21 15:05 METAR KTHV 211905Z AUTO 08009KT 2SM +RA BR FEW010 FEW014 OVC033 18/17 A2996 RMK
                 AO2 P0006 T01780167 =
2018-07-21 14:53 METAR KTHV 211853Z AUTO 08011KT 6SM -RA BR FEW009 SCT015 OVC037 18/17 A2997 RMK
                 AO2 SLP147 P0010 T01830172 =
2018-07-21 14:46 METAR KTHV 211846Z AUTO 08012G17KT 6SM -RA BR SCT008 BKN013 OVC039 18/17 A2996
                 RMK AO2 P0010 T01830172 =
2018-07-21 14:29 METAR KTHV 211829Z AUTO 07005KT 4SM RA BR SCT008 BKN015 OVC045 19/18 A2997 RMK
                 AO2 P0008 T01890178 =
2018-07-21 13:53 METAR KTHV 211753Z AUTO 07009KT 4SM RA BR FEW015 BKN049 OVC060 19/18 A2997 RMK
                 AO2 SLP150 P0011 60039 T01940178 10217 20189 58011 =
2018-07-21 12:53 METAR KTHV 211653Z AUTO 07008KT 6SM -RA BR FEW019 OVC070 20/18 A2999 RMK AO2
                 SLP155 P0007 T02000183 =
2018-07-21 12:11 METAR KTHV 211611Z AUTO 08004KT 3SM -RA BR FEW040 BKN055 OVC070 20/19 A3000 RMK
                 AO2 P0004 T02000189 =
2018-07-21 12:05 METAR KTHV 211605Z AUTO 10006KT 2SM +RA BR FEW040 BKN050 OVC065 20/19 A3001 RMK
                 AO2 VIS 1 1/4V4 P0004 T02000189 =
2018-07-21 11:53 METAR KTHV 211553Z AUTO 10007KT 2 1/2SM RA BR FEW017 BKN055 OVC070 20/18 A3001
                 RMK AO2 SLP162 P0015 T02000183 =
2018-07-21 11:21 METAR KTHV 211521Z AUTO 10008KT 3SM RA BR FEW015 SCT046 OVC070 20/19 A3001 RMK
                 AO2 P0007 T02000189 =
2018-07-21 11:12 METAR KTHV 211512Z AUTO 10008KT 2SM RA BR FEW034 BKN080 OVC095 20/19 A3001 RMK
                 AO2 P0005 T02000189 =
2018-07-21 10:53 METAR KTHV 211453Z AUTO 10009KT 6SM -RA BR FEW019 SCT070 OVC090 21/19 A3001 RMK
                 AO2 RAB1354 SLP161 P0006 60006 T02060189 58003 =
2018-07-21 09:53 METAR KTHV 211353Z AUTO 10010KT 10SM OVC017 21/18 A3002 RMK AO2 SLP165 T02110178
                 =
2018-07-21 09:31 METAR KTHV 211331Z AUTO 10009KT 10SM BKN017 BKN025 OVC110 21/18 A3001 RMK AO2
                 T02110178 =
2018-07-21 08:53 METAR KTHV 211253Z AUTO 11008KT 10SM SCT016 SCT021 BKN030 21/18 A3002 RMK AO2
                 SLP163 T02110178 =

Support USWX by starting your Amazon purchase here.